EW8956 Weather Reports


time (UTC)temp
C
wind
direction
speed
KPH
gust
KPH
rain 1hr
cm
rain 24hr
cm
rain mn
cm
humidity
%
barometer
mb
20260904131600 27 0 0.0 0.0 0.00 0.00 0.00 77 1018.4
20260904130049 26 0 0.0 3.2 0.00 0.00 0.00 78 1018.5
20260904124554 26 0 0.0 8.0 0.00 0.00 0.00 79 1018.4
20260904123054 26 0 0.0 6.4 0.00 0.00 0.00 81 1018.4
20260904121549 25 0 0.0 8.0 0.00 0.00 0.00 83 1018.3
20260904120050 24 0 0.0 6.4 0.00 0.00 0.00 84 1018.2
20260904114603 23 0 0.0 0.0 0.00 0.00 0.00 86 1018.2
20260904113054 23 0 0.0 0.0 0.00 0.00 0.00 85 1018.0
20260904111552 23 0 0.0 3.2 0.00 0.00 0.00 85 1017.9
20260904110051 23 0 0.0 6.4 0.00 0.00 0.00 85 1017.8
20260904104559 23 233 0.0 4.8 0.00 0.00 0.00 86 1017.8
20260904103057 23 0 0.0 1.6 0.00 0.00 0.00 85 1017.6
20260904101555 23 0 0.0 0.0 0.00 0.00 0.00 84 1017.7
20260904100059 24 0 0.0 3.2 0.00 0.00 0.00 84 1017.6
20260904094605 24 0 0.0 1.6 0.00 0.00 0.00 83 1017.5
20260904093052 24 0 0.0 3.2 0.00 0.00 0.00 82 1017.4
20260904091559 25 0 0.0 1.6 0.00 0.00 0.00 81 1017.3
20260904090057 25 0 0.0 4.8 0.00 0.00 0.00 81 1017.1
20260904084554 25 223 0.0 8.0 0.00 0.00 0.00 80 1016.8
20260904083050 25 226 1.6 9.7 0.00 0.00 0.00 79 1016.7
20260904081555 25 221 0.0 9.7 0.00 0.00 0.00 78 1016.5
20260904080053 25 0 0.0 8.0 0.00 0.00 0.00 78 1016.7
20260904074551 26 0 1.6 12.9 0.00 0.00 0.00 77 1016.8
20260904073051 26 239 1.6 12.9 0.00 0.00 0.00 77 1016.9
20260904071556 26 0 1.6 8.0 0.00 0.00 0.00 76 1017.1
20260904070055 26 215 0.0 9.7 0.00 0.00 0.00 75 1017.2
20260904064553 26 0 0.0 9.7 0.00 0.00 0.00 75 1017.4
20260904063100 26 0 0.0 4.8 0.00 0.00 0.00 75 1017.7
20260904061555 26 0 1.6 8.0 0.00 0.00 0.00 75 1017.8
20260904060104 27 0 1.6 6.4 0.00 0.00 0.00 75 1018.0
20260904054612 27 218 0.0 8.0 0.00 0.00 0.00 75 1018.2
20260904053050 27 0 0.0 6.4 0.00 0.00 0.00 75 1018.2
20260904051556 27 0 0.0 3.2 0.00 0.00 0.00 73 1018.3
20260904050056 27 227 0.0 4.8 0.00 0.00 0.00 73 1018.4
20260904044553 27 0 0.0 6.4 0.00 0.00 0.00 73 1018.5
20260904043054 27 0 0.0 1.6 0.00 0.00 0.00 73 1018.4
20260904041548 27 0 0.0 0.0 0.00 0.00 0.00 73 1018.2
20260904040057 27 0 0.0 0.0 0.00 0.00 0.00 74 1018.0
20260904034551 28 0 0.0 1.6 0.00 0.00 0.00 70 1018.0
20260904033058 28 0 0.0 4.8 0.00 0.00 0.00 70 1018.1
20260904031550 28 0 0.0 0.0 0.00 0.00 0.00 71 1018.1
20260904030055 28 0 0.0 1.6 0.00 0.00 0.00 69 1018.1
20260904024558 28 0 0.0 0.0 0.00 0.00 0.00 68 1018.1
20260904023052 28 0 0.0 0.0 0.00 0.00 0.00 68 1018.2
20260904021548 28 0 0.0 0.0 0.00 0.00 0.00 68 1018.2
20260904020045 28 0 0.0 0.0 0.00 0.00 0.00 68 1018.3
20260904014616 29 0 0.0 1.6 0.00 0.00 0.00 66 1018.1
20260904013109 30 0 0.0 0.0 0.00 0.00 0.00 65 1018.1
20260904011553 30 0 0.0 0.0 0.00 0.00 0.00 63 1017.7
20260904010052 30 0 0.0 1.6 0.00 0.00 0.00 61 1017.6
20260904004554 31 0 0.0 0.0 0.00 0.00 0.00 60 1017.4
20260904003101 31 0 0.0 0.0 0.00 0.00 0.00 59 1017.2
20260904001550 31 0 0.0 0.0 0.00 0.00 0.00 57 1017.1
20260904000050 32 0 0.0 1.6 0.00 0.00 0.00 56 1016.8
20260903234556 32 0 0.0 0.0 0.00 0.00 0.00 55 1016.7
20260903233059 32 0 0.0 3.2 0.00 0.00 0.00 54 1016.5
20260903231553 32 0 0.0 6.4 0.00 0.00 0.00 53 1016.5
20260903230100 33 64 0.0 6.4 0.00 0.00 0.00 52 1016.5
20260903224550 33 0 0.0 6.4 0.00 0.00 0.00 51 1016.5
20260903223103 33 125 0.0 4.8 0.00 0.00 0.00 51 1016.4
20260903221555 33 0 0.0 9.7 0.00 0.00 0.00 47 1016.5
20260903220055 34 0 0.0 11.3 0.00 0.00 0.00 48 1016.7
20260903214552 34 0 1.6 16.1 0.00 0.00 0.00 47 1016.8
20260903213055 35 0 1.6 14.5 0.00 0.00 0.00 47 1016.7
20260903211606 35 0 0.0 9.7 0.00 0.00 0.00 47 1016.7
20260903210053 35 0 0.0 6.4 0.00 0.00 0.00 48 1016.7
20260903204548 35 0 1.6 9.7 0.00 0.00 0.00 47 1016.9
20260903203056 35 93 0.0 12.9 0.00 0.00 0.00 47 1016.9
20260903201557 35 0 1.6 6.4 0.00 0.00 0.00 48 1017.1
20260903200051 35 0 0.0 6.4 0.00 0.00 0.00 48 1017.2
20260903194557 35 0 1.6 11.3 0.00 0.00 0.00 49 1017.4
20260903193107 34 0 1.6 11.3 0.00 0.00 0.00 48 1017.5
20260903191552 35 111 1.6 14.5 0.00 0.00 0.00 49 1017.7
20260903190054 34 0 3.2 9.7 0.00 0.00 0.00 50 1017.8
20260903184555 34 0 0.0 4.8 0.00 0.00 0.00 48 1017.9
20260903183056 35 0 1.6 6.4 0.00 0.00 0.00 44 1018.1
20260903181554 35 119 0.0 6.4 0.00 0.00 0.00 45 1018.3
20260903180050 35 118 1.6 9.7 0.00 0.00 0.00 44 1018.5
20260903174546 35 0 1.6 6.4 0.00 0.00 0.00 45 1018.6
20260903173104 34 106 3.2 9.7 0.00 0.00 0.00 47 1018.8
20260903171600 35 0 0.0 4.8 0.00 0.00 0.00 49 1018.8
20260903170106 34 0 0.0 6.4 0.00 0.00 0.00 47 1019.0
20260903164607 34 0 0.0 8.0 0.00 0.00 0.00 48 1019.2
20260903163055 34 0 0.0 6.4 0.00 0.00 0.00 53 1019.3
20260903161552 33 0 0.0 4.8 0.00 0.00 0.00 52 1019.4
20260903160106 33 0 0.0 1.6 0.00 0.00 0.00 53 1019.5
20260903154553 33 0 0.0 3.2 0.00 0.00 0.00 53 1019.5
20260903153106 33 0 0.0 1.6 0.00 0.00 0.00 56 1019.7
20260903151549 32 0 0.0 1.6 0.00 0.00 0.00 54 1019.8
20260903150057 32 0 0.0 3.2 0.00 0.00 0.00 56 1019.8
20260903144558 32 0 0.0 0.0 0.00 0.00 0.00 59 1019.7
20260903143057 31 0 0.0 0.0 0.00 0.00 0.00 60 1019.6
20260903141552 31 0 0.0 0.0 0.00 0.00 0.00 64 1019.7
20260903140057 30 0 0.0 0.0 0.00 0.00 0.00 68 1019.7
20260903134601 29 0 0.0 0.0 0.00 0.00 0.00 69 1019.6
20260903133105 28 0 0.0 0.0 0.00 0.00 0.00 74 1019.6